Meteo pe oră la Bolshinka

Astăzi, 8 Mai, Sâmbătă

Timp Temperatura Precipitaţii Vânt Presiune Umiditate
00:00 +10°C° 0 mm 2 m/s 758 mmHg 84%
01:00 +10°C° 0 mm 2 m/s 758 mmHg 84%
02:00 +10°C° 0 mm 2 m/s 758 mmHg 83%
03:00 +10°C° 0 mm 2 m/s 758 mmHg 83%
04:00 +10°C° 0 mm 2 m/s 758 mmHg 83%
05:00 +10°C° 0 mm 2 m/s 758 mmHg 83%
06:00 +12°C° 0 mm 2 m/s 758 mmHg 84%
07:00 +12°C° 0 mm 3 m/s 757 mmHg 77%
08:00 +14°C° 0 mm 4 m/s 757 mmHg 71%
09:00 +17°C° 0 mm 4 m/s 757 mmHg 65%
10:00 +19°C° 0 mm 4 m/s 756 mmHg 60%
11:00 +20°C° 0 mm 5 m/s 756 mmHg 55%
12:00 +22°C° 0 mm 5 m/s 755 mmHg 50%
13:00 +22°C° 0 mm 5 m/s 755 mmHg 51%
14:00 +22°C° 0 mm 5 m/s 754 mmHg 52%
15:00 +22°C° 0 mm 5 m/s 754 mmHg 53%
16:00 +22°C° 0 mm 6 m/s 754 mmHg 54%
17:00 +22°C° 0 mm 6 m/s 753 mmHg 56%
18:00 +22°C° 0 mm 6 m/s 753 mmHg 57%
19:00 +20°C° 0 mm 5 m/s 753 mmHg 64%
20:00 +18°C° 0 mm 4 m/s 753 mmHg 71%
21:00 +17°C° 0 mm 3 m/s 753 mmHg 78%
22:00 +16°C° 0.2 mm 3 m/s 752 mmHg 81%
23:00 +16°C° 0.2 mm 3 m/s 752 mmHg 85%

Mâine, 9 Mai, Duminică

Timp Temperatura Precipitaţii Vânt Presiune Umiditate
00:00 +14°C° 0.2 mm 3 m/s 752 mmHg 88%
01:00 +14°C° 0.6 mm 3 m/s 752 mmHg 90%
02:00 +13°C° 0.6 mm 4 m/s 752 mmHg 91%
03:00 +13°C° 0.6 mm 4 m/s 752 mmHg 93%
04:00 +12°C° 0.8 mm 5 m/s 752 mmHg 92%
05:00 +10°C° 0.8 mm 5 m/s 752 mmHg 92%
06:00 +9°C° 0.8 mm 6 m/s 753 mmHg 91%
07:00 +8°C° 2.4 mm 6 m/s 753 mmHg 91%
08:00 +6°C° 2.4 mm 7 m/s 754 mmHg 91%
09:00 +5°C° 2.4 mm 8 m/s 754 mmHg 91%
10:00 +5°C° 1.4 mm 7 m/s 755 mmHg 90%
11:00 +5°C° 1.4 mm 7 m/s 755 mmHg 90%
12:00 +5°C° 1.4 mm 6 m/s 756 mmHg 90%
13:00 +5°C° 0.7 mm 7 m/s 756 mmHg 86%
14:00 +6°C° 0.7 mm 7 m/s 756 mmHg 81%
15:00 +8°C° 0.7 mm 7 m/s 757 mmHg 77%
16:00 +8°C° 0.3 mm 7 m/s 757 mmHg 78%
17:00 +8°C° 0.3 mm 7 m/s 758 mmHg 78%
18:00 +8°C° 0.3 mm 7 m/s 758 mmHg 78%
19:00 +7°C° 0.1 mm 6 m/s 759 mmHg 78%
20:00 +7°C° 0.1 mm 6 m/s 759 mmHg 78%
21:00 +7°C° 0.1 mm 6 m/s 760 mmHg 77%
22:00 +5°C° 0 mm 6 m/s 760 mmHg 77%
23:00 +5°C° 0 mm 6 m/s 760 mmHg 78%

Poimâine, 10 Mai, Luni

Timp Temperatura Precipitaţii Vânt Presiune Umiditate
00:00 +6°C° 0 mm 5 m/s 760 mmHg 78%
01:00 +5°C° 0 mm 6 m/s 760 mmHg 78%
02:00 +5°C° 0 mm 6 m/s 760 mmHg 79%
03:00 +4°C° 0 mm 7 m/s 760 mmHg 79%
04:00 +4°C° 0 mm 7 m/s 760 mmHg 79%
05:00 +4°C° 0 mm 7 m/s 760 mmHg 79%
06:00 +4°C° 0 mm 7 m/s 760 mmHg 80%
07:00 +4°C° 0.5 mm 7 m/s 759 mmHg 81%
08:00 +4°C° 0.5 mm 7 m/s 759 mmHg 83%
09:00 +5°C° 0.5 mm 7 m/s 759 mmHg 85%
10:00 +4°C° 0.9 mm 7 m/s 758 mmHg 85%
11:00 +4°C° 0.9 mm 7 m/s 758 mmHg 85%
12:00 +4°C° 0.9 mm 7 m/s 758 mmHg 86%
13:00 +4°C° 0.6 mm 7 m/s 757 mmHg 88%
14:00 +4°C° 0.6 mm 7 m/s 757 mmHg 90%
15:00 +4°C° 0.6 mm 7 m/s 756 mmHg 92%
16:00 +5°C° 1 mm 7 m/s 756 mmHg 92%
17:00 +5°C° 1 mm 7 m/s 755 mmHg 93%
18:00 +5°C° 1 mm 7 m/s 754 mmHg 94%
19:00 +7°C° 2 mm 6 m/s 754 mmHg 95%
20:00 +7°C° 2 mm 6 m/s 753 mmHg 96%
21:00 +8°C° 2 mm 5 m/s 752 mmHg 96%
22:00 +7°C° 0.6 mm 5 m/s 753 mmHg 97%
23:00 +7°C° 0.6 mm 5 m/s 753 mmHg 97%

11 Mai, Marţi

Timp Temperatura Precipitaţii Vânt Presiune Umiditate
00:00 +6°C° 0.6 mm 5 m/s 754 mmHg 97%
01:00 +6°C° 0 mm 5 m/s 754 mmHg 96%
02:00 +6°C° 0 mm 5 m/s 755 mmHg 95%
03:00 +6°C° 0 mm 5 m/s 755 mmHg 95%
04:00 +5°C° 0 mm 5 m/s 756 mmHg 94%
05:00 +5°C° 0 mm 5 m/s 756 mmHg 93%
06:00 +5°C° 0 mm 5 m/s 756 mmHg 92%
07:00 +5°C° 0.1 mm 6 m/s 757 mmHg 91%
08:00 +5°C° 0.1 mm 7 m/s 757 mmHg 91%
09:00 +5°C° 0.1 mm 7 m/s 757 mmHg 90%
10:00 +5°C° 0.1 mm 8 m/s 758 mmHg 90%
11:00 +5°C° 0.1 mm 8 m/s 758 mmHg 90%
12:00 +5°C° 0.1 mm 9 m/s 759 mmHg 89%
13:00 +6°C° 0.3 mm 9 m/s 759 mmHg 86%
14:00 +7°C° 0.3 mm 9 m/s 759 mmHg 83%
15:00 +8°C° 0.3 mm 9 m/s 759 mmHg 80%
16:00 +9°C° 1.5 mm 8 m/s 760 mmHg 83%
17:00 +9°C° 1.5 mm 7 m/s 761 mmHg 86%
18:00 +8°C° 1.5 mm 7 m/s 761 mmHg 89%
19:00 +8°C° 0.1 mm 6 m/s 761 mmHg 90%
20:00 +7°C° 0.1 mm 5 m/s 761 mmHg 92%
21:00 +7°C° 0.1 mm 4 m/s 761 mmHg 93%
22:00 +7°C° 0 mm 4 m/s 761 mmHg 93%
23:00 +7°C° 0 mm 3 m/s 761 mmHg 94%

12 Mai, Miercuri

Timp Temperatura Precipitaţii Vânt Presiune Umiditate
00:00 +5°C° 0 mm 3 m/s 761 mmHg 94%
01:00 +6°C° 0 mm 2 m/s 761 mmHg 93%
02:00 +6°C° 0 mm 2 m/s 761 mmHg 92%
03:00 +6°C° 0 mm 2 m/s 761 mmHg 91%
04:00 +7°C° 0 mm 2 m/s 761 mmHg 90%
05:00 +7°C° 0 mm 2 m/s 761 mmHg 89%
06:00 +8°C° 0 mm 2 m/s 761 mmHg 88%
07:00 +10°C° 0 mm 3 m/s 761 mmHg 81%
08:00 +12°C° 0 mm 4 m/s 761 mmHg 74%
09:00 +14°C° 0 mm 5 m/s 760 mmHg 67%
10:00 +15°C° 0 mm 5 m/s 760 mmHg 62%
11:00 +17°C° 0 mm 5 m/s 760 mmHg 57%
12:00 +19°C° 0 mm 5 m/s 760 mmHg 52%
13:00 +19°C° 0 mm 5 m/s 760 mmHg 51%
14:00 +20°C° 0 mm 4 m/s 760 mmHg 50%
15:00 +20°C° 0 mm 4 m/s 759 mmHg 49%
16:00 +20°C° 0 mm 4 m/s 759 mmHg 53%
17:00 +19°C° 0 mm 3 m/s 759 mmHg 57%
18:00 +19°C° 0 mm 3 m/s 759 mmHg 61%
19:00 +17°C° 0 mm 3 m/s 759 mmHg 64%
20:00 +16°C° 0 mm 2 m/s 759 mmHg 67%
21:00 +14°C° 0 mm 2 m/s 759 mmHg 70%
22:00 +14°C° 0 mm 2 m/s 758 mmHg 69%
23:00 +13°C° 0 mm 2 m/s 758 mmHg 69%

13 Mai, Joi

Timp Temperatura Precipitaţii Vânt Presiune Umiditate
00:00 +13°C° 0 mm 2 m/s 758 mmHg 68%
01:00 +12°C° 0 mm 2 m/s 758 mmHg 69%
02:00 +12°C° 0 mm 2 m/s 758 mmHg 69%
03:00 +12°C° 0 mm 1 m/s 758 mmHg 70%
04:00 +12°C° 0 mm 2 m/s 758 mmHg 71%
05:00 +13°C° 0 mm 2 m/s 758 mmHg 72%
06:00 +13°C° 0 mm 2 m/s 758 mmHg 73%
07:00 +15°C° 0 mm 2 m/s 759 mmHg 68%
08:00 +17°C° 0 mm 3 m/s 759 mmHg 62%
09:00 +19°C° 0 mm 3 m/s 759 mmHg 56%
10:00 +20°C° 0 mm 3 m/s 758 mmHg 53%
11:00 +21°C° 0 mm 3 m/s 758 mmHg 50%
12:00 +24°C° 0 mm 3 m/s 758 mmHg 47%
13:00 +24°C° 0 mm 3 m/s 758 mmHg 46%
14:00 +25°C° 0 mm 3 m/s 758 mmHg 46%
15:00 +25°C° 0 mm 4 m/s 758 mmHg 46%
16:00 +25°C° 0 mm 3 m/s 758 mmHg 50%
17:00 +24°C° 0 mm 3 m/s 758 mmHg 55%
18:00 +24°C° 0 mm 3 m/s 758 mmHg 60%
19:00 +21°C° 0 mm 3 m/s 758 mmHg 64%
20:00 +19°C° 0 mm 3 m/s 758 mmHg 68%
21:00 +18°C° 0 mm 3 m/s 758 mmHg 72%
22:00 +17°C° 0 mm 3 m/s 758 mmHg 73%
23:00 +17°C° 0 mm 3 m/s 758 mmHg 74%
Arată mai mult

Formular de consimțământ

Meteoprog și furnizorii noștri de servicii pot stoca și accesa date personale, precum cookies, identificatori de dispozitiv sau alte tehnologii similare pe dispozitivul dumneavoastră și procesa astfel de date pentru a personaliza conținutul și reclamele, dar și pentru a oferi caracteristici de social media și pentru a analiza traficul.

  • Stocarea și/sau accesarea informațiilor pe dispozitivul dumneavoastră

    Cookies, identificatori de dispozitiv sau alte informații pot fi stocate sau accesate pe dispozitiv în scopurile indicate mai sus.

  • Reclame și conținut personalizat, evaluarea reclamelor și a conținutului, informații despre audiențe și dezvoltarea produselor

    Reclamele și conținutul pot fi personalizate pe baza unui profil. Pot fi adăugate date suplimentare pentru a personaliza mai bine reclamele și conținutul. Performanța reclamelor și conținutului poate fi măsurată. Pot fi obținute informații despre utilizatorii care au văzut reclamele și conținutul. Aceste date pot fi utilizate pentru a dezvolta sau îmbunătăți experiența utilizatorilor, sistemele și software-ul.

Dând clic pe ‘Sunt de acord’, permiteți utilizarea cookie-urilor menționate, a identificatorilor de dispozitiv, balizelor web sau altor tehnologii similare. Setările pot fi modificate din browser-ul dispozitivului dumneavoastră.

În anumite scopuri, interesele legitime pot prima asupra consimțământului. Puteți citi mai multe informații în acest sens în Politica privind Confidențialitatea Datelor și Cookie.